Wind_Speed
24 24 24 23 23 22 22 21 21 20 19 19 18 17 16 15 14 14 13 13 13 13 13 13 13 14 14 14 14 14 14 14 14 14 14 14 14 13 14 14 14 14 15 15 16 16 16 16 17 17 18 18 18 18 18 18 19 20 21 22 22 21 20 19 17 15 14 14 13 13 15 16 17 18 18 20 22 22 21 19 18 18 16 15 15 14 14 14
26 26 25 25 24 24 24 23 22 22 21 20 19 19 18 17 16 16 15 15 15 15 15 16 16 16 16 16 16 16 16 16 16 16 16 16 16 16 16 16 16 17 17 18 18 19 19 19 19 19 19 19 19 19 19 20 21 22 23 23 23 22 20 18 16 14 14 14 14 15 16 17 18 18 18 19 21 23 22 20 18 18 17 15 15 15 15 15
28 27 27 27 26 26 25 25 24 23 23 22 21 20 20 19 18 18 17 17 17 17 18 18 18 18 18 18 18 18 17 18 17 17 18 18 18 18 18 19 19 19 19 20 20 21 21 21 21 21 21 21 21 20 21 22 23 24 24 24 23 21 19 17 15 14 14 15 16 17 17 19 18 18 18 18 21 23 23 22 20 19 19 18 16 15 15 15
30 29 29 28 28 28 27 26 26 25 24 23 23 22 21 20 20 20 19 19 19 20 20 20 20 20 19 19 19 19 19 19 19 19 19 19 19 20 20 21 21 21 21 22 22 23 23 23 23 23 23 23 23 23 24 25 25 25 24 23 21 20 18 16 15 15 16 17 18 19 19 20 19 19 19 19 21 23 23 22 22 21 21 21 19 18 17 17
32 31 31 30 30 29 29 28 27 27 26 25 24 24 23 22 22 22 21 22 22 22 22 22 22 21 21 20 20 20 20 20 20 19 20 20 21 21 21 22 22 22 22 23 24 24 25 25 25 25 25 25 25 25 26 26 26 25 23 21 19 18 17 16 16 17 17 19 20 20 21 21 20 20 21 21 22 22 23 23 24 23 22 23 22 21 20 19
33 33 33 32 32 31 30 30 29 28 27 27 26 25 25 24 24 24 24 24 24 24 24 24 23 22 22 21 21 21 22 22 20 21 21 21 22 22 23 23 23 24 24 25 26 26 27 27 27 27 27 27 27 26 25 25 24 23 21 19 17 17 18 17 17 18 20 21 22 22 23 22 22 23 24 24 23 23 24 25 25 25 24 23 23 23 22 21
35 35 34 34 33 33 32 31 31 30 29 28 28 27 27 27 26 27 27 26 26 26 25 25 24 23 23 22 22 22 23 23 21 22 23 23 24 24 25 26 26 26 26 26 27 27 27 26 26 26 25 25 25 24 23 22 21 20 19 18 17 17 18 19 19 21 22 24 24 24 24 24 24 25 26 27 26 25 25 25 26 26 25 25 24 24 23 22
37 36 36 36 35 34 33 33 32 31 31 30 30 29 29 29 29 29 29 28 28 27 26 26 25 24 23 23 23 23 25 24 23 24 25 26 26 27 28 28 28 27 26 25 25 25 25 24 24 24 23 23 23 22 21 20 19 18 18 18 18 18 19 20 22 24 25 26 26 25 26 25 25 26 28 29 28 27 26 26 26 26 26 26 26 25 24 23
38 38 38 37 36 36 35 34 34 33 33 32 32 32 32 32 32 32 31 30 29 28 27 26 26 25 24 24 24 25 27 26 26 27 28 28 29 29 29 29 27 26 25 25 25 25 25 25 24 24 23 22 22 21 20 19 18 18 18 18 20 20 21 23 24 26 27 27 27 26 27 26 26 28 29 28 28 28 27 27 27 27 27 27 27 27 26 25
40 40 39 39 38 37 37 36 36 35 35 35 34 34 34 34 34 33 32 31 30 29 28 27 27 26 26 26 25 27 29 29 29 30 30 31 31 31 30 28 27 26 26 26 26 27 27 26 26 25 24 22 22 22 21 20 19 19 19 20 22 23 24 26 27 27 28 27 27 27 27 27 26 28 28 27 27 27 27 26 25 26 26 26 27 27 27 27
42 42 41 41 40 39 39 38 38 38 37 37 37 37 36 36 35 34 33 32 31 30 29 29 29 28 28 28 28 30 32 31 32 32 32 32 32 31 30 28 28 28 28 28 28 28 28 28 27 26 25 24 23 23 23 22 22 22 23 23 25 26 27 28 28 28 28 28 28 27 27 26 26 28 27 25 25 26 26 24 24 25 26 26 26 26 26 27
44 44 43 42 42 41 41 41 40 40 40 39 39 38 38 36 35 34 33 32 32 31 31 31 31 31 31 30 31 33 34 33 34 34 34 33 32 31 30 30 29 29 29 30 30 29 29 28 28 27 26 25 25 25 25 25 25 26 26 26 27 28 28 29 29 28 28 29 28 28 25 23 25 27 25 24 24 25 25 25 24 24 25 25 26 26 26 26
45 45 45 44 43 43 42 42 42 41 40 40 39 38 38 37 36 35 34 34 34 34 34 33 34 34 34 33 33 35 35 35 35 34 34 33 32 31 31 31 31 31 31 31 31 30 30 29 29 28 27 27 26 27 27 27 27 28 28 28 28 29 28 29 30 29 29 29 28 28 23 20 24 26 24 23 24 24 24 24 24 23 24 25 25 26 26 26
47 46 46 45 44 44 43 43 42 42 41 41 40 39 39 38 37 37 36 36 37 37 36 37 37 37 37 35 35 36 36 35 35 34 34 33 33 33 33 33 33 33 32 32 31 31 30 30 29 29 28 28 27 28 28 28 29 29 30 29 29 29 28 28 29 29 30 30 28 28 23 19 22 25 24 24 24 24 24 24 24 24 24 25 25 25 26 26
48 47 47 46 46 45 45 44 44 43 43 42 42 41 41 41 40 40 39 39 39 39 39 40 39 40 39 36 35 36 35 35 34 34 34 34 34 34 34 34 34 34 33 32 32 31 31 30 30 30 29 29 29 29 30 30 30 31 32 31 30 28 27 27 28 29 30 31 29 28 24 19 20 24 26 27 26 25 25 24 24 25 25 25 25 25 26 26
49 49 48 47 47 47 46 46 45 45 44 44 44 43 43 43 42 42 42 42 42 42 42 42 41 41 39 36 35 35 35 35 35 35 35 35 36 35 35 35 35 35 34 33 32 32 32 32 32 31 31 30 30 31 32 32 31 32 32 31 29 28 26 26 27 29 31 31 30 28 25 21 21 25 27 28 27 25 25 25 25 25 26 26 26 27 27 27
50 50 49 49 48 48 48 47 47 47 46 46 45 44 44 44 44 44 43 43 43 43 43 42 42 42 40 37 36 35 36 37 36 36 36 36 36 36 36 35 35 34 34 33 33 33 33 34 33 32 31 30 30 32 33 32 31 31 32 31 30 29 27 25 26 30 31 32 31 29 26 23 24 27 29 28 26 25 25 26 26 27 27 27 27 27 27 28
50 49 49 48 48 47 47 47 47 47 47 47 46 46 46 45 45 45 44 44 44 43 43 43 42 42 41 39 38 37 37 38 37 37 37 36 36 35 35 34 34 34 34 34 34 35 35 34 34 32 30 29 31 33 34 32 31 31 31 31 31 30 28 26 27 31 32 32 31 29 28 25 26 29 30 29 27 26 26 27 28 28 28 28 28 28 28 27
49 48 48 47 46 46 46 45 45 46 46 46 46 46 46 46 46 46 45 45 45 44 44 44 44 43 41 40 39 38 37 37 37 36 36 35 35 34 34 34 34 35 35 35 35 36 35 35 33 30 28 30 33 35 34 33 32 32 32 33 33 31 29 27 29 32 33 32 30 30 30 28 28 31 31 30 29 29 29 29 29 29 28 28 28 28 28 28
49 48 48 47 46 46 45 45 44 44 44 44 44 44 45 45 46 46 46 46 45 45 45 45 44 43 41 39 38 37 36 36 36 35 35 35 35 35 35 35 35 35 35 35 35 35 35 35 32 28 29 34 36 35 35 34 34 34 35 35 35 34 32 30 32 34 34 34 31 30 32 31 31 32 32 31 31 30 30 30 30 29 28 27 27 28 28 28
50 49 48 48 47 47 46 45 45 44 44 44 43 43 43 43 44 44 44 44 43 43 43 42 41 40 39 37 36 36 36 36 35 35 35 36 36 36 36 35 35 34 33 35 35 35 36 37 32 30 34 37 37 37 37 37 37 37 37 38 37 36 34 33 35 36 36 36 34 32 33 33 34 34 33 33 32 31 31 31 30 29 28 28 28 28 28 29
51 50 49 49 48 48 47 46 46 45 45 45 44 43 43 42 43 43 43 42 41 41 41 41 40 39 38 38 38 38 38 37 37 36 37 37 36 36 35 34 34 34 35 36 36 37 39 38 34 35 38 39 39 39 39 39 39 39 39 39 38 36 36 36 36 36 36 37 36 35 34 34 35 35 34 33 33 32 32 32 31 30 29 29 29 29 29 29
52 51 50 50 49 48 48 47 46 46 46 46 45 44 44 44 44 44 44 44 42 42 42 42 41 40 40 40 40 40 40 38 37 37 36 36 35 35 35 35 35 36 37 37 38 41 42 39 37 39 41 41 41 41 41 41 41 40 40 40 38 36 37 37 36 36 36 37 37 37 36 36 35 34 33 33 32 32 33 33 32 31 31 31 31 31 30 30
52 51 51 50 50 49 48 48 47 47 47 46 46 45 45 45 46 46 46 47 45 43 43 43 43 41 40 41 41 41 40 38 37 36 35 35 35 36 37 36 38 39 38 39 41 43 43 41 40 41 42 43 43 42 42 42 42 42 40 39 38 37 38 38 37 37 37 37 37 38 38 37 34 33 33 32 32 33 34 33 33 32 32 32 31 31 31 31
54 53 52 52 51 50 50 49 48 48 48 47 46 46 46 46 47 47 48 49 48 43 42 43 43 42 40 41 41 40 40 39 37 36 36 36 37 38 39 39 40 40 40 41 44 45 43 41 41 42 43 44 43 42 42 42 43 42 40 39 39 39 39 39 38 38 38 38 37 38 39 38 35 33 33 32 34 36 35 34 33 33 33 32 31 31 31 31
56 55 54 54 53 53 52 50 49 49 49 48 48 47 47 47 48 48 49 51 50 44 41 42 43 43 42 41 41 41 42 41 37 37 37 38 39 40 41 42 42 41 42 44 46 46 43 41 42 43 43 43 43 42 41 43 44 42 39 38 39 40 39 39 39 39 39 38 38 38 39 39 38 36 34 34 37 37 36 35 35 34 33 32 32 32 32 32
58 57 57 56 55 55 54 52 51 51 50 50 50 49 49 49 49 49 49 53 53 46 44 44 44 45 44 42 42 42 44 42 38 39 39 40 41 42 44 44 43 43 44 46 47 46 42 41 42 43 43 43 42 41 42 43 43 40 38 38 39 40 40 39 39 39 39 39 39 39 38 39 40 39 38 38 39 37 37 37 36 35 34 33 33 32 32 34
60 59 59 58 57 56 55 55 54 54 53 53 52 52 51 50 50 50 50 55 54 48 47 47 44 45 45 44 44 44 44 43 41 41 41 42 44 45 45 45 45 45 46 47 47 44 42 42 42 42 42 41 40 41 42 41 41 39 38 38 39 39 40 40 40 40 40 41 41 40 38 39 41 41 42 42 41 40 39 39 37 36 34 33 33 33 35 37
63 62 61 60 59 58 58 57 57 56 56 55 54 54 52 51 52 51 53 56 55 51 51 49 46 45 46 45 45 45 44 43 43 43 44 45 46 46 46 46 47 47 46 46 45 43 42 42 41 41 40 39 39 40 40 40 40 39 38 38 38 39 40 40 41 41 42 43 42 39 38 40 42 44 45 45 44 43 41 39 38 36 34 34 35 37 40 42
65 64 63 62 60 60 59 59 59 59 58 57 56 55 54 54 54 53 57 59 57 55 54 52 49 47 47 47 46 45 44 44 45 46 46 47 47 47 47 47 48 47 46 45 43 41 41 40 40 40 39 39 39 40 39 39 39 38 38 38 39 40 41 41 43 43 44 45 42 39 39 42 45 46 47 47 47 45 42 40 39 38 37 38 40 42 44 45
67 65 64 62 60 60 61 61 61 61 60 58 57 57 57 57 57 57 60 60 57 58 57 55 53 51 50 48 47 46 46 46 46 47 48 48 48 48 48 47 47 46 45 43 40 39 39 39 39 39 39 39 38 38 38 38 37 38 39 39 40 41 42 43 43 43 44 45 42 41 43 45 47 48 48 49 48 47 44 42 41 41 42 43 44 45 46 47
66 64 63 62 61 62 63 63 63 63 62 60 59 59 59 60 62 62 62 60 59 60 59 57 55 53 52 50 48 48 47 48 48 49 49 49 49 49 48 47 46 45 44 40 37 37 38 37 37 38 38 37 37 37 36 37 38 39 40 41 41 41 42 43 43 43 43 44 44 45 47 48 48 48 48 48 47 46 45 44 44 45 46 47 48 48 48 49
65 64 63 63 63 64 64 63 64 64 63 61 61 61 61 64 65 62 60 61 60 60 59 59 58 56 55 53 51 50 49 49 49 50 50 50 50 50 48 47 45 43 42 39 37 38 37 37 37 37 36 36 37 36 37 38 40 41 41 41 41 41 42 43 43 44 45 46 46 47 49 48 47 46 46 46 46 46 46 46 47 48 49 50 50 50 50 51
66 66 66 66 66 66 64 62 62 62 61 62 62 61 63 66 64 60 60 60 58 59 59 59 59 58 57 56 53 51 50 50 50 49 49 50 50 49 46 44 43 41 40 39 39 38 38 37 37 37 37 37 38 38 39 40 41 41 41 41 41 41 41 43 44 46 47 47 47 48 48 47 45 45 46 46 47 47 47 49 50 50 51 51 51 51 51 52
66 67 68 69 68 65 61 59 59 58 59 62 63 63 65 66 63 60 60 58 57 58 58 57 57 57 57 56 53 51 50 50 50 49 49 48 48 46 44 42 41 41 40 40 40 39 39 39 38 38 38 39 40 40 40 40 40 41 41 41 41 39 40 43 46 47 48 48 48 48 47 46 45 47 48 49 49 49 50 51 51 52 52 51 51 51 51 52
58 59 59 60 60 57 54 54 55 57 59 62 65 66 65 63 61 60 58 56 56 56 55 55 55 54 54 54 52 50 48 47 47 47 47 47 45 44 43 42 41 41 41 41 42 42 42 41 40 39 39 40 41 41 40 40 41 41 41 41 40 40 42 45 47 47 48 50 49 48 48 47 48 50 51 52 52 53 53 53 53 53 52 52 52 52 52 53
51 50 50 49 50 50 49 49 50 53 57 61 66 66 61 58 58 56 54 54 53 53 52 52 52 51 51 50 49 46 45 45 46 47 47 47 46 45 42 41 41 42 43 43 44 44 43 43 42 41 41 41 41 40 41 41 42 41 41 40 40 42 44 45 47 48 48 50 50 50 50 50 51 54 55 55 55 55 55 54 54 53 52 52 52 53 53 54
52 52 51 48 48 49 49 48 48 50 53 58 62 60 55 54 53 51 52 52 51 51 51 50 50 49 48 46 45 44 45 47 48 48 48 47 48 46 43 42 43 44 45 45 45 44 43 43 43 43 42 41 41 42 43 42 41 41 40 40 41 44 45 45 47 48 49 51 52 53 53 53 55 57 57 57 57 57 55 54 54 53 53 53 53 53 54 55
56 58 56 51 50 52 51 51 52 52 54 58 59 55 51 50 50 50 52 52 51 52 51 49 48 46 45 45 45 46 48 49 50 50 50 49 49 48 46 45 46 46 46 46 45 45 44 44 45 44 42 42 44 44 43 41 41 41 41 42 43 45 46 46 47 49 51 53 54 56 56 56 59 60 59 58 57 57 56 55 54 54 53 53 53 54 55 56
61 61 57 52 53 54 53 54 56 58 60 61 60 57 55 54 53 53 54 54 54 54 53 50 49 48 48 48 49 51 53 53 53 53 53 52 52 51 50 49 48 48 47 46 45 45 45 44 45 45 45 46 46 45 42 41 42 43 44 45 45 46 46 47 49 51 52 53 55 58 60 60 61 64 62 60 58 57 57 57 55 54 53 53 54 55 57 58
63 62 59 56 56 55 55 58 60 62 63 63 62 60 59 58 57 56 56 56 56 55 54 53 52 52 52 52 53 55 56 58 57 57 57 56 54 53 51 50 50 49 47 46 45 45 45 45 46 47 48 48 46 44 44 43 44 45 46 46 46 47 48 50 52 52 52 54 56 60 64 64 64 66 65 61 59 59 58 57 55 54 54 55 56 58 59 61
64 62 59 59 59 55 56 61 64 64 65 64 61 60 59 58 58 59 59 59 58 57 57 57 56 56 55 55 56 57 59 60 60 60 59 57 54 52 51 51 51 49 47 47 46 46 46 47 48 50 50 49 47 48 47 46 46 47 48 48 48 48 49 50 52 53 54 57 60 64 68 67 65 65 63 61 59 58 58 58 57 57 57 57 59 60 62 63
65 62 58 59 60 59 59 62 64 65 66 63 61 61 61 61 61 62 62 62 61 60 60 59 58 57 56 56 58 59 59 58 58 59 58 57 55 54 53 53 51 48 48 49 49 48 48 50 51 52 51 51 51 52 51 50 50 49 49 49 48 49 49 49 54 56 59 64 65 65 67 68 67 64 62 60 59 59 58 58 58 58 59 60 62 63 64 64
65 64 61 60 61 62 65 65 64 64 65 64 63 64 65 65 65 65 64 63 63 61 60 59 58 58 57 58 59 56 53 53 55 56 57 56 55 54 54 53 51 50 50 50 50 50 51 52 52 52 53 55 55 54 54 53 52 50 49 49 49 50 52 55 59 60 63 65 63 61 64 67 65 62 62 62 61 60 59 58 58 58 60 62 64 65 65 66
62 65 64 64 64 66 67 66 65 65 66 66 67 67 68 68 68 67 67 66 64 62 61 60 59 59 59 58 55 52 50 52 55 56 57 57 55 54 53 52 51 51 50 50 51 51 52 53 54 54 56 57 56 55 53 51 50 51 53 54 55 57 59 61 62 62 63 63 61 62 66 65 61 61 63 64 61 60 60 60 59 60 62 65 66 67 67 69
54 58 59 62 65 67 67 65 65 66 66 67 68 69 70 70 70 69 70 69 65 62 61 60 59 60 60 58 54 52 52 55 56 56 57 56 55 54 52 52 52 51 51 52 52 52 53 54 55 55 55 55 54 54 54 54 56 59 60 61 61 61 61 62 63 64 63 62 63 64 65 64 61 61 64 64 61 60 61 61 62 64 66 67 68 69 70 72
52 54 54 55 59 63 65 64 64 66 66 65 66 67 67 67 68 68 69 68 63 59 59 61 61 61 59 56 55 54 55 57 59 57 55 54 54 53 53 53 54 55 56 56 55 54 54 55 56 55 56 56 58 60 62 64 65 66 65 65 64 63 63 64 66 65 61 63 65 64 64 64 61 60 63 64 62 61 63 64 66 68 68 69 70 72 73 73
55 54 54 54 56 58 59 59 60 63 65 65 66 66 64 63 62 63 65 64 61 58 60 62 62 60 57 56 56 57 57 59 60 58 56 55 55 54 54 53 54 55 55 56 56 56 58 59 59 60 62 64 66 67 67 67 67 66 66 66 65 64 65 65 65 63 62 65 66 63 63 63 59 59 64 65 63 65 67 68 69 69 70 71 73 73 73 72
59 57 56 56 56 55 55 54 54 57 61 64 65 65 63 61 58 58 59 59 59 58 60 61 59 58 57 57 58 58 58 59 60 59 58 57 56 55 53 52 52 52 53 55 57 58 60 62 63 65 67 68 68 68 67 66 66 65 65 65 65 65 66 66 65 64 64 65 64 62 62 61 58 60 65 65 66 69 70 70 70 70 72 73 73 73 72 70
64 61 58 57 57 57 55 54 53 55 58 61 62 60 59 58 57 55 54 54 55 56 57 57 56 56 56 56 57 57 57 59 60 59 58 57 56 54 54 55 56 56 57 59 60 61 63 64 65 66 67 68 68 68 66 65 65 64 64 66 68 68 68 68 66 64 62 62 61 61 63 62 59 62 66 67 69 71 71 71 71 72 73 73 72 72 70 68
65 64 61 60 60 60 59 57 56 56 58 59 59 58 57 57 55 53 52 52 52 53 54 55 55 56 56 56 56 55 55 58 60 60 59 58 55 53 54 57 60 61 62 62 63 63 64 65 66 66 67 68 67 66 66 65 64 65 69 70 70 68 66 66 64 62 60 60 60 62 65 64 62 64 67 69 70 70 71 72 72 72 73 72 71 70 68 67
65 66 64 63 64 64 63 61 60 60 60 60 59 59 58 57 56 55 54 53 53 53 54 55 56 57 58 58 57 56 57 60 61 60 60 58 55 54 55 59 62 63 64 65 65 66 66 66 67 66 67 68 68 68 68 63 63 70 74 71 66 64 64 65 64 61 59 59 62 65 66 65 65 67 69 69 69 70 71 72 72 71 70 69 68 67 66 65
Wind_Direction
228 228 228 229 230 230 231 232 233 234 236 237 239 242 244 247 250 254 259 263 267 271 275 278 280 280 279 276 272 269 265 261 259 258 258 259 259 261 262 264 266 268 270 273 274 275 277 279 281 282 284 285 286 288 290 292 294 296 297 298 298 298 297 296 294 293 293 294 296 299 300 300 301 302 305 306 304 304 305 303 303 307 309 307 307 308 309 311
229 229 230 230 231 232 233 233 234 236 237 239 241 244 246 249 253 257 260 264 267 271 275 277 279 278 276 273 271 268 265 262 261 261 261 262 264 266 267 268 269 270 272 274 275 277 278 279 281 282 283 284 285 287 289 292 294 295 296 296 296 295 293 290 288 287 288 291 295 298 298 296 297 299 302 302 299 300 301 301 302 306 307 305 304 305 305 306
229 230 230 231 232 233 234 235 235 237 239 240 242 245 248 251 255 258 261 265 268 272 275 277 277 276 275 272 270 268 265 263 263 263 264 265 267 268 269 270 271 272 273 275 276 278 279 280 281 282 283 284 285 286 289 291 293 294 294 293 292 291 288 285 282 282 285 290 295 297 297 295 296 299 299 297 296 297 299 302 304 305 304 303 304 303 303 303
230 230 231 232 233 234 235 236 237 239 240 242 244 247 250 253 256 258 262 265 269 272 274 275 275 274 272 270 269 268 266 264 264 264 265 266 267 269 270 271 273 274 275 277 278 279 281 282 282 283 283 284 285 286 289 290 291 291 290 289 288 285 282 279 278 279 283 290 295 297 296 295 298 298 296 295 294 295 298 302 303 303 303 304 305 304 304 303
230 231 232 233 234 235 236 238 239 241 242 244 247 249 252 254 256 259 263 266 269 271 273 273 272 271 268 267 267 266 266 264 264 265 266 267 268 270 271 273 275 276 277 279 280 281 282 282 282 283 283 284 285 286 287 288 289 287 285 284 281 278 276 274 275 279 286 291 295 296 296 297 298 297 296 295 294 295 300 301 300 300 300 301 303 303 303 303
231 232 233 234 235 236 238 239 241 243 245 247 249 251 253 255 258 261 263 266 269 270 271 270 269 267 265 264 264 264 264 263 265 266 267 268 270 272 273 275 277 278 279 280 281 281 282 282 282 283 283 284 285 285 286 286 285 284 281 280 276 275 276 276 278 283 290 293 295 297 297 298 300 299 298 297 297 300 301 300 300 299 299 299 300 301 301 301
233 234 235 236 237 238 239 241 243 245 247 249 251 253 255 257 260 262 264 266 268 268 268 266 265 263 262 261 261 261 262 262 263 266 267 269 272 274 276 278 280 280 281 281 281 282 282 283 283 284 285 285 286 286 285 284 282 280 279 279 276 275 277 281 285 289 292 295 297 298 298 300 301 301 300 299 301 302 301 300 300 300 300 300 300 300 300 300
235 236 237 238 239 240 242 243 245 247 249 251 253 255 257 259 261 263 265 266 266 266 264 263 262 261 260 259 260 260 261 263 264 266 269 272 274 277 279 281 282 282 281 281 281 282 283 284 285 285 286 287 287 287 286 283 281 278 278 279 279 278 279 283 287 290 293 295 296 297 297 299 300 299 298 299 301 301 300 300 300 301 302 302 301 301 300 299
237 239 240 241 242 243 244 246 247 249 251 253 255 257 259 261 262 264 265 265 264 263 261 261 260 260 259 259 260 262 263 265 267 269 272 275 277 279 280 281 281 280 280 280 280 281 282 284 285 285 285 286 286 285 285 283 280 278 276 277 278 279 281 284 286 289 292 293 293 294 295 296 297 296 295 297 299 299 300 301 301 303 304 303 303 303 302 300
239 240 241 243 244 245 246 248 250 251 253 255 257 258 260 262 263 264 264 263 262 260 259 259 259 260 260 261 262 264 266 268 271 272 274 276 278 279 279 278 277 277 277 278 279 279 281 282 282 282 282 283 283 282 282 281 279 277 275 274 276 278 281 283 285 287 289 289 290 291 292 294 295 293 293 296 298 298 299 301 303 304 304 304 303 302 301 300
241 242 243 244 246 247 249 250 252 253 255 256 258 259 260 261 261 262 261 261 260 259 259 259 260 261 261 263 265 266 268 270 272 274 275 276 277 277 276 274 273 274 275 277 278 279 279 279 279 279 279 279 279 280 279 279 277 276 276 276 277 279 281 282 284 286 287 288 288 288 290 293 293 291 294 298 298 296 298 300 303 303 303 302 301 300 300 299
243 244 245 246 248 249 251 252 254 255 256 257 258 258 259 259 259 259 259 259 259 258 259 260 261 262 263 265 266 267 270 272 273 274 275 275 275 275 274 273 272 273 275 276 277 278 277 277 277 277 277 277 277 278 278 277 277 277 276 276 278 279 280 282 284 285 286 286 286 286 288 292 291 290 295 298 296 295 298 301 302 301 300 298 298 299 300 300
244 245 246 247 249 250 251 253 254 255 256 256 257 257 257 257 257 257 258 258 259 260 261 261 263 264 265 266 268 269 271 272 272 273 273 273 273 272 272 272 273 274 275 276 276 276 276 276 276 277 278 278 278 278 278 278 278 278 277 276 276 277 279 282 284 285 285 284 284 285 286 289 288 289 294 294 293 296 299 300 300 299 296 295 296 298 299 300
245 246 247 248 249 250 251 252 254 254 255 256 256 257 257 257 257 258 258 259 260 261 262 263 264 265 266 267 268 269 270 271 271 271 271 271 271 271 271 272 273 274 275 275 276 275 276 276 276 277 278 279 279 279 280 279 279 278 277 276 275 277 280 282 284 285 284 282 282 282 283 284 285 288 292 292 294 298 299 298 296 294 293 294 295 296 297 298
246 247 248 249 250 251 252 253 254 255 256 256 257 257 258 258 259 259 260 260 261 262 263 264 265 266 266 267 267 268 269 269 269 269 270 271 271 271 272 273 274 274 275 275 276 276 277 277 278 279 280 281 282 282 282 280 280 279 278 278 279 280 283 283 284 283 282 281 281 281 280 281 283 286 289 292 296 298 297 295 293 293 294 295 296 296 296 296
247 248 249 250 251 252 253 254 254 255 256 257 257 258 258 259 259 260 260 261 262 263 264 265 265 266 266 265 265 266 266 267 268 269 270 270 271 272 273 274 275 275 276 277 277 277 278 279 280 281 283 284 285 284 282 280 280 280 280 282 283 284 284 284 284 283 282 281 280 280 281 281 281 283 287 291 296 296 294 293 293 293 294 295 295 295 295 296
247 248 249 250 251 252 253 253 254 255 256 257 257 258 259 259 260 260 261 262 262 263 264 265 265 265 265 264 264 264 264 265 267 268 268 269 271 272 273 274 276 277 278 278 278 279 279 279 281 282 283 286 286 283 280 280 281 282 284 286 286 286 285 284 284 281 279 279 280 280 280 281 281 283 287 291 293 292 290 291 291 290 290 291 292 292 292 292
247 248 248 249 250 251 252 253 254 255 256 256 257 258 258 259 260 260 261 261 262 263 263 264 264 264 265 265 264 264 265 266 266 267 268 269 270 271 272 274 275 276 277 277 278 278 278 279 279 281 284 286 282 279 279 281 283 284 286 286 286 286 286 286 283 278 276 276 278 280 280 279 281 285 289 291 291 289 287 287 286 286 287 289 289 289 289 288
246 247 248 249 249 250 251 253 254 255 256 256 257 257 257 258 259 259 260 261 261 262 262 263 263 264 265 265 265 265 265 265 265 266 267 268 269 270 271 272 274 275 275 277 277 277 278 278 278 282 285 281 277 277 280 283 284 285 285 286 286 286 286 287 282 277 277 277 277 279 280 281 283 286 289 291 289 288 287 285 284 285 286 287 288 288 288 288
246 247 248 249 249 250 251 252 253 254 255 256 256 257 257 257 258 258 259 259 260 260 261 262 263 263 264 264 264 264 263 263 264 265 266 268 269 269 270 271 273 274 275 276 275 276 278 278 280 285 282 277 277 280 282 284 284 285 285 287 287 287 287 286 282 280 280 280 280 280 282 285 286 287 288 288 287 287 285 284 283 284 284 285 285 286 287 288
245 246 247 248 249 250 250 251 252 253 254 255 255 256 257 257 258 258 258 258 258 259 260 261 261 262 263 263 262 263 263 263 264 265 267 267 268 269 270 271 272 273 274 275 276 278 278 279 284 284 279 278 281 283 284 284 284 285 286 287 287 288 287 284 282 282 282 282 283 283 283 285 286 286 287 286 285 285 283 283 283 284 284 284 283 284 285 286
245 246 247 248 249 250 250 251 251 252 253 254 255 256 256 257 257 258 257 257 257 258 258 259 260 261 262 263 263 263 264 265 265 266 266 267 267 269 269 270 272 273 273 275 278 279 278 280 283 281 279 281 282 282 283 283 284 285 285 285 286 287 286 283 281 282 282 282 283 283 282 282 282 283 285 285 284 284 284 284 285 285 286 285 285 286 286 286
244 245 246 247 248 249 250 251 251 252 253 254 255 255 256 256 257 257 258 257 256 257 258 259 260 261 262 263 265 264 264 265 265 265 266 266 267 268 269 270 272 273 274 277 279 278 278 280 281 279 279 279 279 280 281 282 283 283 282 283 284 285 283 281 281 281 280 280 281 281 280 279 280 281 282 282 283 283 283 284 285 285 285 285 286 286 286 285
243 244 245 246 247 249 250 251 252 253 253 254 255 255 256 257 257 257 258 258 256 255 258 260 260 261 261 262 263 264 264 264 264 265 265 266 267 269 270 271 272 273 276 278 278 276 277 279 279 278 277 276 276 277 279 280 280 280 280 281 282 281 280 279 280 279 278 277 278 279 279 279 280 281 282 283 283 282 281 282 283 283 282 283 283 283 283 283
244 244 245 246 247 248 249 249 251 252 253 254 255 255 256 257 257 258 259 259 257 254 255 258 260 260 259 260 262 263 264 264 264 265 266 267 268 269 271 272 272 275 276 277 276 275 276 279 279 276 275 275 275 276 278 278 277 277 278 279 279 278 277 277 277 277 276 276 277 278 280 282 283 282 283 283 282 280 280 281 281 281 281 282 282 282 282 283
244 244 245 246 247 248 248 249 250 252 252 253 254 255 256 256 257 258 259 260 257 254 253 254 257 259 259 260 261 263 264 264 266 267 267 268 269 270 271 271 273 275 276 276 275 274 276 278 276 274 274 273 274 276 276 275 274 276 278 278 277 275 275 275 275 275 275 276 277 278 282 287 289 287 285 282 280 280 282 283 282 282 282 283 282 282 283 284
244 244 245 246 247 248 249 250 251 252 252 253 253 254 255 256 257 258 260 261 258 255 254 253 254 257 259 260 262 264 265 267 268 268 268 269 269 269 270 271 273 275 275 275 275 275 276 275 272 272 272 272 273 274 273 273 274 277 277 275 274 273 274 274 273 274 275 277 278 280 284 289 291 290 287 284 282 284 285 284 283 283 282 281 281 281 283 284
243 244 245 246 247 248 249 250 251 252 252 253 253 254 254 256 257 258 260 260 259 257 256 254 253 256 259 261 262 264 266 269 269 269 270 269 269 269 270 272 273 273 273 274 276 276 274 271 270 270 269 270 271 271 271 273 274 275 274 273 273 273 273 273 273 274 276 278 280 283 287 289 290 289 287 286 286 286 285 284 284 282 280 279 279 281 283 284
242 243 244 245 247 248 249 250 251 251 252 252 253 254 255 256 257 258 259 259 259 259 258 257 256 256 259 261 263 264 266 268 270 270 269 268 269 269 270 271 271 271 273 274 275 274 272 270 269 268 268 268 268 268 270 271 272 272 272 272 272 273 273 274 276 278 280 282 285 287 288 288 288 288 288 288 288 288 288 287 284 281 279 279 281 283 285 287
241 242 243 245 246 248 250 251 250 250 251 252 253 254 255 255 256 257 257 257 258 260 260 260 259 258 259 261 263 266 267 268 269 269 269 269 269 268 269 269 270 271 272 272 272 271 270 269 268 267 266 266 266 267 268 268 270 271 271 272 272 273 274 276 279 282 284 287 290 289 286 285 286 288 290 290 290 290 290 288 284 282 282 283 285 287 289 291
241 242 244 246 248 250 252 252 251 250 250 250 252 253 254 255 255 255 255 256 258 260 261 262 261 261 261 262 264 267 268 269 269 270 270 269 268 267 268 270 270 270 270 269 269 268 268 267 266 265 264 264 264 265 265 267 270 271 272 272 272 273 276 278 281 284 286 289 291 288 285 285 286 289 291 291 292 291 290 287 285 285 287 288 289 290 291 293
242 243 245 248 250 253 254 253 252 251 251 250 251 252 254 255 254 254 256 258 259 260 261 263 263 264 264 264 265 267 268 270 271 271 269 268 268 268 269 269 269 268 268 268 268 267 266 266 265 264 263 263 262 263 265 268 270 271 271 271 272 275 278 280 283 284 286 287 287 286 286 287 289 290 291 291 290 289 287 286 287 288 289 290 291 293 294 295
243 244 246 249 252 253 254 254 253 253 253 251 251 253 254 254 255 257 258 259 260 262 263 264 264 265 265 266 266 267 269 270 270 270 268 267 268 269 269 269 269 268 269 268 266 265 264 264 264 264 263 263 263 264 266 268 270 270 271 272 273 276 278 282 284 284 284 284 284 284 284 286 289 291 290 288 286 284 284 285 286 286 288 289 291 293 294 295
245 246 248 249 251 252 253 254 254 253 252 251 252 253 252 254 257 259 259 260 261 264 265 265 266 266 266 266 266 267 268 269 268 267 266 266 267 268 268 268 268 267 267 266 265 264 264 263 263 264 264 264 264 265 267 268 269 271 272 273 275 277 280 283 283 281 282 282 283 283 284 288 292 291 289 285 282 282 282 282 283 284 286 289 291 292 293 293
248 249 249 249 250 251 251 251 252 251 250 251 252 250 250 255 260 261 261 263 264 265 266 266 265 265 265 265 266 267 268 268 267 265 265 265 265 266 266 265 265 265 265 266 266 265 264 263 262 262 263 264 265 266 267 268 269 272 273 275 278 280 281 280 279 280 281 281 284 286 288 292 294 292 290 287 285 284 283 283 283 285 288 290 292 292 291 291
246 247 247 247 247 246 246 248 249 250 251 252 251 250 253 257 260 261 263 264 263 263 263 263 263 263 264 265 266 267 267 266 264 263 263 263 263 264 263 262 263 264 265 265 265 264 264 263 261 261 262 264 266 266 266 267 269 272 274 277 280 280 277 277 277 279 279 280 286 291 292 294 294 293 292 289 287 285 284 285 286 289 291 293 292 292 291 291
241 243 244 245 245 244 244 246 247 248 249 249 249 250 254 257 256 258 259 259 259 260 260 261 263 264 265 265 264 264 265 264 263 263 263 262 262 263 262 261 262 263 263 263 262 262 262 263 263 263 263 264 265 266 267 269 271 275 278 280 279 276 275 276 276 277 278 280 287 293 294 295 295 294 293 290 287 284 284 286 289 291 292 292 292 291 292 292
240 241 241 242 244 244 245 244 244 244 244 244 246 248 250 250 250 252 254 256 258 260 260 262 263 264 263 262 262 263 264 265 264 265 265 264 264 264 263 262 262 262 262 261 261 262 263 263 265 265 265 265 266 268 271 273 276 279 280 279 276 275 275 274 274 277 279 280 286 291 293 294 292 292 291 288 285 283 285 289 290 291 291 291 291 290 290 290
237 239 238 238 239 240 242 242 242 242 241 240 243 246 247 247 248 250 253 256 258 259 260 261 261 260 259 260 262 264 265 266 266 265 265 264 264 265 265 263 263 263 263 262 264 265 264 264 266 267 268 268 270 272 275 278 279 278 276 274 273 273 273 274 274 277 278 280 286 291 292 292 291 290 287 285 284 285 288 292 291 291 291 290 289 289 288 288
234 236 236 235 235 235 236 238 238 238 238 239 242 246 248 250 250 252 254 256 258 259 260 260 260 259 259 261 264 266 267 267 267 267 266 265 264 265 266 266 265 263 263 263 265 265 265 267 269 271 271 272 274 276 278 278 275 274 273 273 274 273 274 273 274 277 278 280 285 288 289 291 291 289 287 286 288 289 290 292 291 291 291 290 289 289 288 288
234 236 235 234 234 234 232 232 234 235 237 239 241 244 246 248 250 251 252 254 255 257 258 259 260 260 260 262 265 267 267 267 267 267 267 266 266 266 268 267 265 263 263 263 264 265 268 271 273 276 277 279 280 280 279 276 274 274 273 274 275 275 274 272 275 280 281 280 283 283 285 290 291 288 289 290 291 291 292 293 294 293 292 291 290 290 289 288
234 234 233 232 233 232 230 230 232 235 237 239 241 243 244 245 247 249 251 253 254 255 256 259 261 262 263 264 266 269 269 268 267 267 268 268 267 268 268 266 264 263 262 262 264 268 270 273 276 279 282 282 281 281 279 276 274 273 273 276 276 274 274 273 276 282 280 279 281 279 280 288 290 288 290 291 291 293 295 296 296 294 293 291 290 288 287 287
229 229 229 230 231 230 229 229 230 232 235 238 240 242 244 245 246 248 250 252 253 254 256 258 260 262 263 265 267 267 265 264 263 262 264 266 266 266 266 266 264 262 262 265 269 272 273 275 278 279 280 279 278 278 277 275 273 273 275 277 275 274 275 274 276 279 277 278 281 278 279 288 292 293 294 293 292 295 295 294 292 291 290 289 287 286 286 286
227 227 228 229 230 231 230 229 230 231 234 237 239 240 242 244 246 248 250 251 253 254 256 258 259 261 263 264 264 262 259 258 258 257 258 261 263 264 264 264 264 264 265 269 272 273 273 275 276 276 276 276 277 276 276 277 276 275 275 274 272 272 273 273 276 277 276 279 279 274 276 285 291 293 293 290 291 292 290 289 288 288 287 285 284 284 285 285
228 230 231 229 229 230 232 232 232 233 234 236 238 239 241 244 246 248 250 251 253 255 256 257 259 260 261 260 257 254 253 255 256 255 258 261 263 263 263 264 265 266 268 270 272 272 272 272 273 273 275 276 278 278 277 276 273 272 272 272 272 274 274 275 277 275 275 275 272 270 275 281 285 288 287 286 288 288 286 286 287 286 284 283 283 284 285 285
231 231 231 231 230 231 232 233 233 235 236 236 238 239 240 242 245 247 249 251 253 254 254 255 257 257 256 253 249 248 252 255 253 252 255 259 262 263 264 265 266 267 269 270 271 270 268 267 269 270 272 273 275 274 273 271 270 271 273 273 273 274 275 277 277 276 276 271 268 275 281 279 282 286 284 284 285 285 285 286 285 283 282 283 285 285 285 284
235 235 234 233 234 233 233 233 234 235 237 239 239 239 239 240 241 244 247 250 252 252 252 252 253 252 250 248 247 248 251 253 252 251 252 255 258 259 261 262 264 265 267 266 265 264 262 262 265 266 266 268 269 270 270 271 272 272 273 274 275 277 279 280 279 279 276 269 271 281 282 278 283 286 283 283 284 284 284 284 282 283 283 284 285 284 283 284
236 238 239 238 237 237 236 236 236 236 237 238 239 240 241 241 241 242 245 248 249 249 248 248 247 246 246 248 248 248 249 250 251 252 253 255 257 257 257 258 258 260 260 259 258 258 258 260 262 263 265 267 269 270 271 271 272 272 273 275 278 279 280 280 278 278 275 271 276 283 280 280 286 286 281 282 283 283 282 281 281 283 284 283 283 283 283 284
236 236 239 242 242 241 239 238 238 237 237 237 238 239 240 241 242 243 244 245 244 243 242 242 242 243 246 248 249 249 249 250 251 252 253 254 255 256 257 258 258 257 257 257 257 258 260 261 262 264 266 267 269 270 270 270 271 271 273 276 279 280 279 278 278 279 277 276 280 282 280 282 286 283 281 282 282 281 280 281 282 283 283 283 283 283 284 284
238 237 237 240 244 245 243 240 238 237 236 236 237 238 239 241 242 243 242 241 240 240 240 241 243 246 249 249 249 249 250 249 249 250 251 253 255 258 260 261 262 261 260 261 262 264 265 266 266 267 268 268 270 270 270 271 271 272 275 279 280 279 280 281 282 282 280 280 282 281 280 283 284 282 281 281 280 280 281 282 283 283 282 283 283 284 284 285
238 238 237 237 240 243 244 243 241 239 238 238 238 238 239 240 241 242 243 244 245 246 246 246 249 252 253 252 251 251 251 251 252 252 254 257 260 260 260 261 263 264 264 266 266 267 267 268 269 270 269 270 272 272 271 272 272 273 277 280 280 281 283 284 282 281 281 282 282 279 279 282 282 280 278 278 279 281 282 283 283 283 283 283 284 284 285 284
236 238 238 237 238 239 240 241 241 240 240 241 241 241 242 243 244 246 248 250 249 249 248 249 250 252 253 252 252 251 252 253 254 256 258 260 261 260 259 261 263 264 265 266 266 267 268 268 269 269 269 270 272 272 272 271 270 273 278 281 282 283 283 281 280 280 282 282 280 279 280 281 280 278 277 279 280 281 282 282 283 283 284 284 284 284 284 284
Height
5849 5850 5851 5852 5853 5854 5855 5856 5857 5858 5859 5859 5860 5861 5862 5862 5863 5863 5864 5864 5864 5865 5865 5866 5866 5867 5867 5867 5868 5868 5868 5869 5869 5869 5869 5869 5869 5869 5869 5870 5870 5870 5870 5870 5870 5870 5870 5870 5870 5870 5870 5869 5869 5869 5869 5869 5868 5868 5867 5867 5866 5866 5866 5865 5865 5865 5865 5865 5865 5865 5865 5865 5864 5864 5863 5862 5859 5858 5858 5859 5859 5859 5861 5861 5861 5861 5861 5861
5847 5848 5849 5850 5851 5852 5853 5854 5855 5856 5857 5858 5859 5859 5860 5860 5861 5861 5862 5863 5863 5863 5864 5864 5865 5865 5866 5866 5866 5867 5867 5867 5867 5867 5868 5868 5868 5868 5868 5868 5868 5868 5869 5868 5868 5868 5868 5868 5868 5868 5868 5867 5867 5867 5867 5866 5866 5866 5865 5865 5864 5864 5864 5864 5864 5863 5863 5863 5864 5864 5864 5863 5863 5863 5862 5861 5858 5857 5856 5857 5858 5858 5859 5859 5859 5859 5859 5859
5844 5846 5847 5848 5849 5850 5851 5852 5853 5854 5855 5856 5857 5857 5858 5858 5859 5860 5860 5861 5861 5862 5862 5863 5863 5864 5864 5864 5865 5865 5865 5865 5866 5866 5866 5866 5866 5866 5866 5866 5867 5867 5867 5867 5866 5866 5866 5866 5866 5866 5865 5865 5865 5865 5865 5864 5864 5863 5863 5862 5862 5862 5862 5862 5862 5862 5862 5862 5862 5862 5862 5861 5861 5861 5861 5860 5857 5855 5855 5855 5856 5857 5856 5857 5857 5857 5857 5857
5842 5843 5844 5846 5847 5848 5849 5850 5851 5852 5853 5854 5854 5855 5856 5856 5857 5857 5858 5859 5859 5860 5860 5861 5861 5862 5862 5862 5863 5863 5863 5864 5864 5864 5864 5864 5864 5864 5864 5865 5865 5865 5865 5865 5864 5864 5864 5864 5864 5863 5863 5863 5863 5863 5863 5862 5861 5861 5860 5860 5859 5859 5860 5860 5860 5860 5860 5860 5860 5860 5859 5859 5859 5859 5858 5858 5856 5854 5854 5854 5854 5854 5854 5854 5855 5855 5855 5855
5840 5841 5842 5843 5844 5846 5847 5848 5849 5850 5851 5851 5852 5853 5853 5854 5855 5855 5856 5857 5857 5858 5858 5859 5859 5860 5860 5860 5861 5861 5861 5861 5862 5862 5862 5862 5862 5862 5862 5863 5863 5863 5863 5862 5862 5862 5861 5861 5861 5861 5861 5860 5861 5861 5860 5860 5859 5858 5858 5858 5857 5857 5857 5858 5858 5858 5858 5858 5858 5857 5857 5857 5857 5856 5856 5855 5854 5854 5854 5853 5853 5853 5853 5852 5852 5852 5853 5853
5837 5838 5840 5841 5842 5843 5844 5845 5846 5847 5848 5849 5850 5850 5851 5852 5852 5853 5854 5855 5855 5856 5856 5856 5857 5857 5858 5858 5858 5859 5859 5859 5860 5860 5860 5860 5860 5860 5860 5860 5860 5860 5860 5860 5860 5859 5859 5859 5859 5858 5858 5858 5858 5858 5858 5857 5857 5856 5855 5856 5856 5855 5855 5855 5856 5856 5856 5855 5855 5855 5854 5855 5854 5854 5853 5852 5852 5852 5852 5852 5851 5851 5851 5851 5850 5850 5850 5850
5835 5836 5837 5838 5839 5840 5842 5843 5844 5845 5845 5846 5847 5848 5848 5849 5850 5851 5851 5852 5853 5853 5854 5854 5855 5855 5855 5856 5856 5857 5857 5857 5858 5858 5857 5858 5858 5858 5858 5858 5858 5858 5858 5858 5857 5857 5857 5856 5856 5856 5855 5855 5855 5855 5855 5855 5855 5854 5853 5854 5854 5853 5853 5853 5853 5853 5853 5853 5853 5852 5852 5852 5852 5851 5850 5849 5850 5850 5850 5849 5849 5849 5849 5849 5848 5848 5848 5848
5832 5833 5834 5835 5836 5838 5839 5840 5841 5842 5843 5843 5844 5845 5846 5846 5847 5848 5849 5850 5850 5851 5851 5851 5852 5852 5853 5853 5854 5854 5854 5854 5856 5855 5855 5855 5855 5856 5855 5855 5855 5855 5855 5855 5855 5854 5854 5854 5853 5853 5853 5853 5852 5852 5852 5853 5853 5852 5852 5852 5852 5852 5851 5851 5851 5851 5851 5851 5850 5850 5850 5850 5850 5849 5847 5847 5847 5848 5848 5848 5847 5847 5846 5846 5846 5846 5846 5846
5828 5830 5831 5832 5833 5835 5836 5837 5838 5839 5840 5840 5841 5842 5843 5843 5844 5845 5846 5847 5848 5848 5848 5849 5849 5850 5851 5851 5852 5852 5851 5852 5853 5853 5853 5853 5853 5853 5853 5853 5852 5852 5852 5852 5852 5851 5851 5851 5851 5851 5850 5850 5850 5850 5850 5850 5850 5851 5850 5850 5850 5850 5850 5850 5849 5849 5849 5849 5848 5848 5848 5848 5848 5847 5846 5845 5845 5845 5845 5845 5845 5844 5844 5844 5843 5843 5843 5843
5825 5826 5827 5829 5830 5831 5832 5833 5834 5836 5836 5837 5838 5839 5839 5840 5841 5842 5843 5844 5844 5845 5845 5846 5846 5847 5848 5848 5849 5849 5848 5849 5850 5850 5850 5849 5849 5849 5849 5850 5849 5849 5849 5849 5849 5849 5848 5848 5848 5848 5848 5848 5848 5847 5848 5848 5848 5848 5849 5849 5848 5848 5848 5847 5847 5847 5847 5847 5846 5846 5846 5846 5846 5844 5843 5844 5843 5843 5843 5843 5843 5842 5841 5841 5841 5840 5840 5840
5821 5822 5824 5825 5826 5828 5829 5830 5831 5832 5833 5834 5835 5835 5836 5837 5838 5839 5840 5840 5841 5842 5842 5843 5844 5844 5845 5846 5847 5846 5845 5846 5846 5846 5846 5846 5846 5846 5846 5846 5846 5846 5846 5846 5846 5846 5845 5845 5845 5845 5845 5846 5845 5845 5845 5845 5846 5846 5846 5846 5846 5846 5845 5844 5845 5844 5844 5844 5844 5844 5844 5844 5843 5841 5841 5842 5841 5840 5840 5841 5841 5840 5839 5838 5838 5838 5837 5837
5817 5818 5820 5821 5823 5824 5825 5826 5827 5829 5829 5830 5831 5832 5833 5834 5835 5836 5836 5837 5838 5839 5839 5840 5840 5841 5842 5843 5844 5842 5842 5843 5843 5843 5843 5843 5843 5843 5843 5843 5843 5843 5843 5843 5843 5843 5842 5843 5843 5842 5843 5843 5843 5843 5843 5843 5843 5843 5843 5843 5843 5843 5842 5841 5841 5842 5841 5841 5841 5841 5842 5842 5840 5838 5839 5839 5838 5838 5838 5838 5838 5838 5837 5836 5835 5835 5834 5834
5813 5814 5815 5817 5819 5820 5821 5822 5824 5825 5826 5826 5827 5828 5829 5830 5831 5832 5833 5834 5834 5835 5836 5836 5837 5838 5839 5840 5840 5839 5839 5839 5839 5839 5839 5839 5840 5840 5840 5840 5840 5840 5840 5840 5840 5840 5840 5840 5840 5840 5840 5840 5840 5840 5840 5840 5840 5840 5840 5840 5840 5840 5840 5839 5838 5838 5838 5837 5837 5837 5839 5840 5837 5835 5836 5836 5835 5835 5836 5836 5835 5835 5834 5833 5833 5832 5831 5831
5808 5810 5811 5813 5814 5816 5817 5818 5819 5821 5822 5822 5823 5824 5825 5826 5827 5828 5829 5830 5830 5831 5832 5833 5833 5834 5835 5837 5836 5835 5835 5835 5835 5835 5835 5836 5836 5836 5836 5837 5837 5837 5837 5837 5837 5837 5837 5837 5837 5837 5837 5837 5837 5837 5837 5837 5836 5836 5836 5836 5836 5837 5837 5837 5835 5835 5834 5833 5834 5834 5836 5838 5835 5832 5832 5832 5833 5833 5833 5832 5832 5832 5831 5830 5830 5829 5829 5828
5804 5805 5807 5809 5810 5812 5813 5814 5815 5816 5817 5818 5819 5820 5821 5822 5823 5824 5825 5826 5827 5827 5828 5829 5829 5830 5831 5833 5832 5832 5832 5832 5832 5832 5832 5833 5832 5833 5833 5833 5833 5833 5834 5834 5834 5833 5833 5833 5833 5834 5834 5834 5834 5834 5833 5833 5833 5832 5831 5832 5833 5834 5835 5834 5832 5831 5830 5829 5830 5830 5832 5834 5833 5830 5829 5829 5830 5830 5829 5829 5828 5828 5827 5827 5827 5826 5826 5825
5799 5801 5803 5804 5806 5807 5808 5810 5811 5812 5813 5814 5815 5816 5817 5818 5819 5820 5821 5822 5822 5823 5824 5824 5825 5826 5827 5829 5829 5829 5828 5828 5828 5828 5829 5829 5829 5829 5830 5830 5830 5830 5830 5830 5830 5830 5830 5830 5830 5830 5831 5831 5831 5830 5829 5829 5829 5828 5827 5828 5829 5830 5831 5831 5829 5827 5826 5825 5826 5826 5828 5830 5830 5828 5826 5826 5826 5826 5825 5825 5825 5824 5824 5824 5823 5823 5822 5822
5795 5796 5798 5800 5801 5802 5804 5805 5806 5807 5808 5809 5810 5812 5812 5813 5815 5815 5816 5817 5818 5819 5819 5820 5821 5821 5822 5824 5825 5825 5825 5824 5825 5825 5825 5825 5826 5826 5826 5826 5826 5826 5827 5827 5827 5827 5827 5827 5827 5827 5828 5828 5828 5826 5824 5825 5826 5825 5824 5825 5826 5826 5827 5828 5827 5824 5822 5821 5822 5823 5825 5826 5826 5824 5823 5823 5823 5823 5822 5821 5821 5821 5820 5820 5820 5819 5819 5819
5790 5792 5793 5795 5796 5798 5799 5800 5801 5802 5803 5804 5806 5807 5808 5809 5810 5811 5812 5813 5814 5814 5815 5816 5816 5816 5818 5820 5821 5821 5821 5821 5821 5821 5821 5822 5822 5822 5822 5823 5823 5823 5823 5823 5823 5823 5823 5823 5824 5825 5826 5826 5824 5821 5821 5822 5823 5822 5822 5821 5822 5823 5823 5824 5824 5820 5818 5818 5819 5819 5821 5823 5822 5820 5819 5820 5820 5820 5819 5819 5818 5818 5817 5817 5817 5816 5816 5816
5786 5787 5789 5790 5792 5793 5794 5796 5797 5798 5799 5800 5801 5802 5803 5804 5805 5806 5807 5808 5809 5810 5810 5811 5812 5812 5814 5815 5816 5817 5817 5817 5817 5817 5817 5818 5818 5819 5819 5819 5819 5819 5819 5820 5819 5819 5819 5819 5820 5822 5823 5821 5819 5818 5818 5819 5819 5819 5819 5818 5818 5819 5820 5821 5819 5816 5815 5815 5817 5817 5816 5818 5819 5816 5816 5816 5816 5816 5816 5816 5815 5815 5815 5814 5813 5813 5812 5812
5781 5783 5784 5785 5787 5788 5790 5791 5792 5793 5794 5795 5796 5797 5798 5799 5800 5801 5802 5803 5804 5805 5805 5806 5807 5808 5809 5810 5811 5812 5813 5813 5813 5814 5814 5814 5815 5815 5815 5816 5816 5816 5816 5816 5815 5815 5815 5815 5817 5820 5819 5816 5814 5815 5815 5815 5816 5815 5815 5815 5814 5815 5816 5817 5814 5813 5812 5811 5813 5814 5813 5813 5814 5813 5813 5813 5813 5813 5812 5812 5812 5811 5811 5811 5810 5809 5809 5809
5775 5777 5779 5781 5782 5783 5785 5787 5788 5789 5790 5791 5792 5792 5794 5794 5794 5796 5797 5798 5799 5800 5800 5801 5802 5804 5805 5806 5807 5807 5808 5809 5809 5810 5811 5811 5811 5811 5812 5812 5812 5812 5812 5811 5811 5812 5811 5811 5815 5816 5813 5811 5811 5811 5811 5811 5811 5811 5811 5810 5810 5811 5812 5812 5810 5809 5808 5807 5809 5810 5809 5810 5809 5809 5810 5810 5810 5809 5808 5807 5807 5807 5807 5807 5806 5806 5805 5805
5770 5772 5774 5776 5777 5779 5780 5782 5783 5784 5785 5786 5787 5788 5789 5789 5790 5791 5791 5792 5794 5795 5796 5797 5798 5800 5801 5801 5802 5803 5803 5804 5806 5806 5806 5807 5807 5807 5808 5808 5808 5808 5808 5807 5808 5807 5806 5808 5812 5811 5808 5808 5808 5808 5807 5807 5807 5807 5807 5806 5806 5807 5807 5806 5806 5805 5804 5803 5804 5805 5806 5806 5805 5805 5806 5806 5805 5805 5803 5802 5802 5803 5803 5802 5802 5802 5802 5801
5765 5767 5769 5770 5772 5774 5775 5777 5778 5779 5780 5781 5782 5783 5784 5785 5785 5786 5786 5787 5789 5791 5791 5792 5793 5795 5796 5796 5797 5797 5798 5800 5801 5802 5803 5803 5804 5804 5803 5804 5804 5804 5804 5804 5804 5802 5801 5805 5807 5806 5804 5804 5803 5804 5803 5803 5803 5803 5802 5802 5803 5803 5802 5801 5801 5801 5800 5800 5800 5800 5800 5801 5802 5802 5803 5802 5801 5800 5799 5798 5798 5798 5798 5798 5798 5798 5798 5797
5760 5762 5763 5765 5767 5768 5770 5772 5773 5775 5775 5776 5778 5779 5779 5780 5780 5781 5781 5780 5783 5787 5787 5787 5789 5790 5792 5792 5792 5792 5794 5796 5797 5798 5799 5799 5800 5799 5799 5800 5800 5799 5800 5801 5799 5797 5798 5801 5802 5801 5800 5799 5799 5800 5800 5800 5799 5798 5798 5798 5799 5799 5797 5796 5797 5797 5796 5796 5796 5796 5795 5796 5798 5798 5798 5797 5797 5795 5794 5794 5795 5794 5794 5794 5794 5794 5794 5793
5755 5756 5758 5759 5761 5763 5765 5766 5769 5769 5770 5772 5773 5774 5774 5775 5775 5775 5775 5774 5776 5782 5784 5783 5784 5785 5787 5787 5787 5789 5789 5791 5793 5794 5795 5795 5795 5795 5795 5795 5795 5796 5797 5796 5794 5792 5795 5798 5797 5796 5795 5795 5795 5796 5797 5796 5794 5794 5795 5795 5794 5794 5793 5793 5793 5792 5792 5792 5792 5791 5790 5790 5793 5794 5794 5793 5792 5790 5790 5791 5790 5790 5790 5790 5789 5789 5789 5789
5749 5751 5752 5754 5756 5758 5759 5761 5764 5764 5765 5767 5767 5768 5769 5770 5770 5770 5770 5768 5769 5776 5780 5779 5779 5779 5782 5783 5783 5785 5784 5786 5789 5790 5790 5791 5791 5791 5790 5790 5791 5792 5792 5791 5788 5788 5792 5794 5792 5790 5791 5790 5791 5792 5792 5790 5789 5791 5792 5792 5790 5789 5789 5789 5788 5788 5787 5787 5787 5787 5786 5786 5786 5788 5789 5789 5787 5786 5787 5786 5786 5785 5785 5784 5784 5784 5784 5784
5743 5745 5746 5748 5750 5752 5754 5757 5758 5759 5760 5761 5762 5763 5763 5764 5765 5765 5766 5762 5762 5770 5774 5774 5775 5775 5777 5778 5779 5780 5779 5782 5785 5785 5786 5786 5786 5786 5785 5785 5787 5787 5786 5785 5783 5784 5788 5788 5786 5786 5786 5786 5787 5787 5786 5785 5785 5787 5789 5787 5786 5785 5785 5785 5784 5783 5783 5782 5782 5782 5783 5782 5781 5781 5782 5782 5781 5782 5782 5781 5781 5780 5780 5780 5779 5779 5779 5779
5736 5738 5740 5742 5744 5746 5749 5751 5752 5754 5755 5755 5757 5757 5758 5759 5759 5760 5760 5756 5756 5764 5766 5768 5771 5772 5772 5774 5775 5776 5775 5778 5780 5780 5781 5781 5780 5781 5780 5781 5782 5781 5781 5780 5779 5781 5782 5781 5781 5781 5781 5782 5782 5782 5781 5781 5782 5783 5783 5783 5782 5781 5781 5780 5780 5779 5779 5778 5777 5778 5780 5778 5775 5775 5775 5775 5776 5777 5777 5777 5776 5776 5776 5775 5775 5774 5774 5773
5729 5732 5734 5736 5738 5740 5742 5745 5747 5748 5748 5750 5751 5751 5753 5754 5754 5755 5754 5750 5751 5756 5758 5761 5766 5768 5769 5769 5770 5771 5772 5774 5774 5775 5775 5775 5775 5776 5776 5776 5775 5775 5775 5775 5775 5776 5775 5776 5776 5776 5776 5777 5777 5776 5777 5777 5777 5778 5779 5778 5778 5777 5776 5776 5775 5775 5775 5773 5773 5776 5776 5773 5769 5767 5768 5769 5770 5771 5772 5772 5771 5771 5771 5770 5770 5769 5768 5767
5722 5725 5727 5729 5732 5734 5736 5739 5741 5741 5742 5744 5744 5746 5747 5747 5748 5748 5745 5744 5747 5749 5750 5755 5760 5762 5764 5765 5765 5766 5768 5769 5769 5769 5769 5769 5770 5770 5770 5770 5770 5770 5770 5769 5770 5770 5770 5771 5771 5771 5772 5772 5772 5772 5773 5773 5773 5774 5774 5774 5773 5772 5771 5771 5770 5771 5770 5769 5771 5773 5771 5768 5765 5762 5762 5763 5764 5764 5765 5765 5765 5765 5765 5765 5764 5763 5762 5761
5716 5719 5720 5723 5726 5728 5731 5733 5734 5734 5735 5737 5738 5739 5740 5740 5740 5739 5737 5740 5744 5743 5744 5749 5752 5756 5758 5760 5761 5762 5762 5763 5763 5763 5763 5763 5764 5764 5764 5764 5764 5764 5763 5764 5765 5765 5765 5765 5766 5766 5766 5767 5767 5768 5768 5768 5769 5769 5769 5769 5768 5767 5766 5766 5765 5766 5766 5765 5766 5767 5765 5763 5760 5759 5760 5759 5759 5759 5759 5758 5758 5758 5758 5758 5757 5756 5755 5755
5710 5712 5714 5717 5720 5721 5724 5727 5727 5727 5728 5730 5731 5731 5733 5732 5729 5730 5733 5737 5738 5737 5739 5743 5745 5749 5752 5753 5755 5756 5756 5757 5757 5757 5756 5756 5756 5757 5758 5758 5758 5757 5757 5759 5761 5760 5760 5760 5761 5761 5761 5762 5763 5763 5764 5764 5764 5764 5763 5763 5762 5761 5760 5760 5761 5762 5761 5761 5761 5760 5758 5757 5756 5756 5757 5756 5755 5754 5753 5753 5753 5752 5751 5751 5750 5749 5749 5748
5703 5705 5707 5710 5713 5715 5719 5721 5720 5720 5722 5724 5723 5724 5725 5721 5720 5726 5730 5731 5732 5732 5735 5738 5739 5742 5744 5746 5748 5749 5750 5750 5750 5750 5749 5749 5750 5751 5751 5751 5752 5752 5753 5755 5755 5755 5755 5755 5756 5756 5757 5758 5758 5759 5759 5758 5758 5758 5757 5757 5757 5756 5755 5756 5757 5756 5756 5755 5755 5754 5753 5752 5752 5753 5753 5751 5750 5750 5749 5749 5748 5747 5746 5745 5745 5744 5743 5743
5696 5698 5701 5704 5707 5709 5713 5714 5712 5714 5715 5715 5716 5716 5713 5711 5715 5722 5723 5725 5728 5728 5730 5732 5733 5735 5736 5738 5740 5742 5743 5743 5743 5744 5743 5743 5744 5744 5745 5746 5746 5747 5748 5749 5749 5750 5750 5751 5752 5752 5753 5753 5753 5754 5753 5752 5752 5752 5752 5751 5751 5751 5751 5752 5751 5749 5749 5750 5750 5749 5748 5748 5748 5749 5748 5746 5745 5745 5745 5744 5743 5743 5741 5741 5740 5739 5738 5737
5689 5691 5693 5696 5700 5703 5706 5707 5706 5707 5707 5707 5708 5704 5702 5705 5712 5715 5716 5721 5723 5723 5725 5726 5727 5728 5728 5730 5732 5734 5736 5736 5737 5737 5737 5738 5738 5739 5740 5740 5741 5742 5743 5743 5744 5745 5745 5745 5747 5747 5748 5748 5748 5748 5748 5747 5747 5747 5746 5745 5746 5747 5747 5746 5744 5743 5744 5744 5744 5744 5743 5744 5744 5742 5741 5740 5740 5740 5739 5738 5737 5737 5736 5735 5734 5733 5731 5730
5682 5683 5685 5688 5693 5697 5699 5700 5700 5700 5700 5700 5697 5693 5696 5704 5708 5709 5712 5715 5716 5717 5719 5719 5719 5720 5721 5723 5726 5727 5729 5730 5730 5731 5731 5732 5732 5733 5734 5735 5736 5737 5738 5739 5739 5739 5739 5740 5741 5742 5742 5743 5742 5743 5743 5742 5742 5741 5741 5741 5742 5742 5740 5739 5738 5739 5738 5737 5738 5739 5739 5739 5739 5737 5736 5735 5735 5734 5732 5732 5731 5730 5730 5729 5727 5725 5723 5722
5674 5676 5679 5683 5687 5690 5692 5694 5695 5693 5693 5691 5685 5685 5693 5700 5702 5704 5706 5707 5708 5710 5712 5712 5713 5715 5716 5718 5719 5721 5722 5723 5724 5724 5725 5726 5726 5728 5730 5731 5732 5733 5734 5734 5733 5733 5733 5734 5735 5736 5737 5737 5738 5737 5737 5737 5736 5736 5737 5737 5736 5735 5734 5734 5733 5733 5733 5731 5732 5734 5733 5734 5733 5731 5731 5730 5729 5727 5726 5727 5726 5725 5724 5721 5719 5717 5716 5715
5669 5670 5672 5678 5682 5683 5686 5688 5688 5687 5686 5681 5677 5681 5690 5693 5695 5698 5698 5699 5702 5704 5705 5707 5709 5710 5711 5712 5713 5716 5716 5716 5717 5718 5719 5720 5720 5722 5725 5726 5727 5728 5728 5728 5727 5728 5728 5728 5729 5730 5730 5731 5732 5732 5731 5731 5732 5732 5732 5731 5730 5728 5729 5729 5728 5727 5726 5724 5724 5727 5729 5729 5727 5726 5726 5724 5722 5720 5721 5721 5720 5719 5717 5714 5713 5711 5710 5709
5663 5662 5666 5674 5676 5676 5679 5681 5682 5681 5678 5673 5672 5678 5685 5687 5689 5692 5692 5693 5695 5696 5699 5702 5703 5705 5706 5707 5708 5709 5709 5710 5711 5712 5713 5714 5715 5716 5719 5720 5721 5722 5722 5722 5722 5722 5722 5722 5722 5723 5725 5725 5725 5725 5726 5727 5727 5726 5725 5724 5724 5723 5723 5723 5722 5721 5719 5717 5717 5720 5722 5723 5720 5718 5717 5717 5716 5715 5714 5715 5713 5711 5710 5707 5706 5705 5703 5702
5654 5654 5661 5669 5669 5669 5674 5674 5673 5671 5667 5667 5671 5676 5680 5681 5683 5685 5686 5687 5688 5689 5692 5695 5697 5699 5700 5702 5703 5703 5704 5704 5705 5706 5707 5708 5709 5710 5712 5713 5715 5716 5716 5715 5715 5715 5715 5715 5715 5716 5718 5718 5718 5720 5721 5721 5720 5719 5718 5718 5718 5718 5717 5717 5715 5714 5713 5711 5711 5711 5713 5716 5712 5707 5707 5710 5711 5710 5708 5707 5705 5704 5703 5701 5699 5697 5696 5695
5646 5646 5655 5662 5661 5663 5666 5663 5660 5659 5658 5661 5667 5670 5673 5675 5676 5678 5680 5681 5682 5683 5685 5687 5689 5691 5693 5695 5696 5698 5698 5698 5699 5700 5700 5701 5703 5704 5706 5707 5707 5708 5709 5708 5708 5708 5708 5708 5708 5708 5709 5709 5711 5712 5713 5712 5711 5711 5711 5712 5713 5713 5711 5709 5707 5708 5708 5706 5706 5703 5702 5707 5705 5699 5699 5703 5705 5704 5701 5698 5697 5696 5695 5693 5691 5690 5688 5687
5637 5639 5648 5653 5653 5656 5656 5651 5651 5652 5651 5655 5661 5664 5666 5669 5670 5671 5673 5676 5677 5678 5680 5681 5682 5684 5686 5688 5690 5692 5692 5692 5692 5693 5693 5695 5697 5698 5699 5699 5699 5701 5702 5701 5701 5701 5701 5700 5701 5701 5702 5703 5703 5704 5704 5704 5704 5704 5705 5707 5707 5706 5705 5703 5700 5702 5701 5699 5699 5695 5692 5698 5699 5695 5695 5695 5695 5695 5693 5691 5689 5687 5687 5685 5684 5682 5680 5679
5628 5634 5641 5643 5644 5648 5646 5641 5643 5645 5645 5650 5656 5657 5658 5661 5663 5665 5667 5669 5670 5672 5674 5675 5677 5678 5680 5682 5684 5685 5686 5686 5685 5686 5687 5689 5690 5691 5691 5691 5692 5694 5694 5693 5693 5694 5693 5693 5694 5695 5696 5696 5696 5696 5697 5697 5697 5698 5700 5701 5701 5700 5700 5698 5694 5694 5692 5690 5691 5686 5681 5686 5690 5690 5689 5686 5684 5687 5687 5685 5684 5681 5679 5678 5675 5673 5672 5671
5623 5628 5631 5634 5637 5638 5634 5633 5637 5639 5641 5646 5648 5649 5651 5653 5656 5658 5660 5662 5663 5666 5668 5670 5671 5673 5675 5676 5677 5678 5679 5679 5679 5680 5681 5682 5683 5684 5684 5684 5686 5687 5686 5686 5686 5687 5686 5686 5688 5689 5688 5688 5688 5689 5690 5691 5692 5693 5694 5694 5694 5694 5694 5691 5688 5686 5682 5681 5684 5679 5673 5677 5683 5684 5681 5678 5679 5681 5680 5679 5678 5676 5673 5670 5667 5666 5666 5665
5618 5619 5622 5626 5628 5627 5625 5628 5632 5634 5636 5639 5641 5643 5645 5646 5649 5652 5654 5655 5658 5660 5662 5663 5666 5668 5669 5670 5670 5671 5672 5673 5673 5673 5674 5675 5677 5677 5678 5678 5679 5679 5679 5679 5680 5680 5679 5679 5680 5681 5680 5681 5682 5683 5685 5687 5687 5686 5687 5687 5687 5687 5686 5683 5682 5678 5672 5673 5676 5672 5667 5672 5679 5678 5673 5673 5675 5675 5672 5671 5671 5669 5665 5661 5659 5659 5658 5656
5610 5610 5614 5617 5617 5617 5618 5622 5626 5627 5630 5633 5633 5635 5638 5640 5643 5646 5647 5648 5652 5654 5655 5657 5659 5661 5662 5662 5664 5665 5666 5667 5667 5667 5668 5669 5670 5670 5671 5672 5672 5672 5673 5673 5673 5673 5672 5672 5673 5674 5674 5675 5676 5676 5678 5679 5679 5679 5680 5681 5680 5680 5679 5677 5672 5668 5666 5666 5665 5666 5666 5666 5671 5672 5667 5666 5669 5667 5665 5663 5661 5658 5656 5654 5653 5652 5649 5646
5602 5603 5607 5609 5609 5609 5612 5615 5618 5620 5624 5626 5626 5628 5631 5634 5636 5639 5640 5642 5645 5648 5649 5650 5652 5654 5654 5656 5657 5658 5660 5661 5660 5662 5664 5664 5664 5664 5664 5665 5665 5666 5667 5667 5667 5667 5666 5665 5668 5668 5668 5670 5670 5669 5670 5671 5671 5672 5672 5672 5674 5673 5672 5668 5662 5660 5663 5658 5655 5661 5662 5658 5663 5666 5659 5657 5660 5658 5656 5654 5650 5649 5648 5647 5645 5642 5639 5637
5595 5598 5601 5602 5602 5603 5606 5610 5613 5614 5617 5619 5619 5621 5625 5627 5630 5632 5634 5635 5638 5641 5642 5642 5644 5647 5648 5650 5651 5651 5653 5654 5654 5657 5659 5658 5658 5658 5658 5659 5659 5660 5661 5659 5659 5660 5658 5659 5663 5661 5661 5663 5663 5661 5662 5663 5662 5664 5665 5666 5668 5667 5664 5660 5655 5656 5657 5650 5649 5655 5655 5652 5658 5658 5650 5649 5651 5649 5646 5644 5642 5641 5640 5637 5634 5632 5631 5630
5588 5592 5594 5595 5596 5598 5601 5605 5607 5608 5610 5612 5612 5615 5619 5622 5624 5626 5628 5629 5630 5633 5634 5635 5638 5641 5642 5643 5644 5644 5647 5648 5649 5651 5652 5651 5652 5652 5652 5652 5652 5653 5654 5652 5652 5652 5650 5652 5656 5654 5652 5655 5655 5653 5654 5654 5653 5655 5658 5661 5662 5659 5655 5651 5650 5651 5648 5643 5644 5648 5645 5647 5652 5648 5642 5643 5641 5637 5635 5635 5635 5634 5630 5627 5625 5623 5623 5622
5580 5584 5588 5589 5590 5592 5595 5598 5600 5601 5603 5605 5606 5610 5614 5616 5618 5620 5621 5622 5623 5625 5627 5630 5633 5634 5635 5635 5636 5638 5642 5642 5641 5642 5643 5643 5643 5644 5644 5644 5645 5645 5645 5645 5645 5644 5643 5643 5646 5645 5642 5644 5646 5645 5644 5645 5645 5645 5650 5654 5652 5649 5647 5646 5645 5644 5640 5638 5640 5639 5635 5638 5644 5640 5635 5633 5629 5626 5626 5627 5626 5624 5620 5618 5617 5616 5615 5613
5573 5576 5580 5583 5585 5586 5588 5591 5593 5595 5596 5598 5601 5605 5608 5610 5612 5613 5613 5614 5617 5619 5622 5624 5626 5626 5627 5627 5629 5633 5636 5634 5632 5633 5634 5634 5635 5636 5636 5636 5636 5636 5636 5637 5636 5636 5635 5634 5636 5636 5631 5632 5638 5637 5634 5637 5636 5635 5643 5648 5644 5642 5643 5640 5637 5636 5635 5634 5633 5630 5627 5630 5635 5631 5625 5623 5621 5619 5619 5617 5614 5613 5611 5609 5609 5608 5606 5604
5566 5568 5572 5575 5577 5579 5581 5584 5585 5586 5588 5592 5596 5598 5600 5603 5605 5605 5605 5607 5610 5612 5614 5616 5618 5618 5618 5620 5623 5627 5627 5623 5623 5624 5625 5625 5626 5627 5627 5628 5629 5629 5629 5630 5629 5628 5628 5627 5628 5628 5623 5623 5629 5628 5626 5627 5624 5625 5637 5643 5639 5638 5637 5630 5627 5630 5631 5628 5624 5620 5620 5622 5622 5619 5616 5616 5615 5612 5610 5608 5605 5604 5602 5600 5599 5599 5597 5594